CCA153 ZYTL-RJOA

Flight info

Callsign CCA153
Flight time 1h 45m
Altitude 37000
Route SAN19D SANKO A326 DONVO G597 AGAVO/N0448F370 Y644 EGOBA G597 XZE V29 MIYOS
Aircraft B738/M-SDE2E3FGHIRWXY/LB1

Departure

Time 2026-04-25 15:31
Airport Dalian Zhoushuizi International Airport (ZYTL)

Arrival

Time 2026-04-25 17:17
Airport Hiroshima Airport (RJOA)
Time Latitude Longitude Altitude Speed Heading
2026-04-25 15:13 38.96268 121.53483 105 ft 0 kts 165°
2026-04-25 15:23 38.96287 121.53478 105 ft 4 kts 171°
2026-04-25 15:23 38.96310 121.53476 104 ft 3 kts 187°
2026-04-25 15:23 38.96332 121.53481 104 ft 2 kts 193°
2026-04-25 15:23 38.96343 121.53484 104 ft 2 kts 188°
2026-04-25 15:24 38.96349 121.53485 104 ft 0 kts 187°
2026-04-25 15:25 38.96348 121.53486 104 ft 0 kts 178°
2026-04-25 15:25 38.96346 121.53493 104 ft 1 kts 104°
2026-04-25 15:26 38.96361 121.53524 103 ft 10 kts 60°
2026-04-25 15:26 38.96384 121.53671 105 ft 23 kts 95°
2026-04-25 15:26 38.96371 121.53907 105 ft 27 kts 94°
2026-04-25 15:26 38.96355 121.54140 105 ft 25 kts 95°
2026-04-25 15:27 38.96339 121.54358 105 ft 24 kts 96°
2026-04-25 15:27 38.96322 121.54562 105 ft 23 kts 96°
2026-04-25 15:27 38.96288 121.54952 105 ft 21 kts 96°
2026-04-25 15:28 38.96278 121.55137 105 ft 21 kts 92°
2026-04-25 15:28 38.96264 121.55319 105 ft 20 kts 97°
2026-04-25 15:28 38.96244 121.55494 105 ft 19 kts 99°
2026-04-25 15:28 38.96234 121.55640 105 ft 10 kts 93°
2026-04-25 15:29 38.96261 121.55711 105 ft 9 kts 26°
2026-04-25 15:29 38.96325 121.55725 103 ft 9 kts
2026-04-25 15:29 38.96334 121.55726 104 ft 1 kts
2026-04-25 15:29 38.96353 121.55728 104 ft 7 kts
2026-04-25 15:30 38.96423 121.55704 103 ft 14 kts 305°
2026-04-25 15:30 38.96435 121.55656 103 ft 0 kts 274°
2026-04-25 15:30 38.96435 121.55647 103 ft 7 kts 274°
2026-04-25 15:30 38.96463 121.55262 105 ft 88 kts 275°
2026-04-25 15:31 38.96549 121.54142 106 ft 164 kts 275°
2026-04-25 15:31 38.96666 121.52519 668 ft 192 kts 273°
2026-04-25 15:31 38.96804 121.50755 1617 ft 202 kts 270°
2026-04-25 15:31 38.96937 121.48917 2451 ft 215 kts 270°
2026-04-25 15:32 38.97088 121.46976 3218 ft 222 kts 271°
2026-04-25 15:32 38.97253 121.44963 3982 ft 228 kts 272°
2026-04-25 15:32 38.97421 121.42951 4913 ft 227 kts 273°
2026-04-25 15:33 38.98274 121.38960 6399 ft 245 kts 302°
2026-04-25 15:33 38.99538 121.37441 7163 ft 255 kts 324°
2026-04-25 15:33 39.01236 121.36658 7882 ft 267 kts 352°
2026-04-25 15:33 39.03078 121.36736 8680 ft 271 kts
2026-04-25 15:34 39.04872 121.37549 9360 ft 281 kts 34°
2026-04-25 15:34 39.06169 121.39424 10029 ft 288 kts 64°
2026-04-25 15:34 39.06603 121.41977 10374 ft 301 kts 95°
2026-04-25 15:34 39.06470 121.43800 10777 ft 304 kts 98°
2026-04-25 15:35 39.05900 121.50196 12416 ft 313 kts 97°
2026-04-25 15:35 39.05576 121.52969 13119 ft 315 kts 110°
2026-04-25 15:35 39.04508 121.55409 13770 ft 314 kts 136°
2026-04-25 15:36 39.00667 121.57638 14982 ft 309 kts 183°
2026-04-25 15:36 38.98518 121.57475 15592 ft 311 kts 187°
2026-04-25 15:36 38.96334 121.57676 16147 ft 323 kts 166°
2026-04-25 15:37 38.94263 121.58998 16347 ft 346 kts 146°
2026-04-25 15:37 38.92291 121.60909 16504 ft 365 kts 144°
2026-04-25 15:37 38.90252 121.62996 16652 ft 383 kts 143°
2026-04-25 15:37 38.88138 121.65183 16936 ft 396 kts 143°
2026-04-25 15:38 38.85981 121.67407 17524 ft 399 kts 143°
2026-04-25 15:38 38.83804 121.69630 18148 ft 402 kts 143°
2026-04-25 15:38 38.81600 121.71862 18649 ft 405 kts 143°
2026-04-25 15:38 38.79375 121.74101 19165 ft 408 kts 143°
2026-04-25 15:39 38.77133 121.76348 19692 ft 410 kts 144°
2026-04-25 15:39 38.74903 121.78576 20210 ft 413 kts 144°
2026-04-25 15:39 38.72634 121.80840 20714 ft 416 kts 144°
2026-04-25 15:39 38.70342 121.83124 21204 ft 419 kts 144°
2026-04-25 15:40 38.68032 121.85424 21681 ft 422 kts 144°
2026-04-25 15:40 38.67249 121.86203 21837 ft 423 kts 144°
2026-04-25 15:40 38.63366 121.90064 22614 ft 428 kts 144°
2026-04-25 15:40 38.61007 121.92407 23098 ft 430 kts 144°
2026-04-25 15:41 38.58634 121.94763 23541 ft 433 kts 144°
2026-04-25 15:41 38.56248 121.97130 23866 ft 437 kts 144°
2026-04-25 15:41 38.53836 121.99521 24231 ft 439 kts 144°
2026-04-25 15:41 38.51418 122.01916 24624 ft 441 kts 144°
2026-04-25 15:42 38.48987 122.04321 24990 ft 443 kts 144°
2026-04-25 15:42 38.46537 122.06743 25318 ft 446 kts 143°
2026-04-25 15:42 38.44073 122.09176 25638 ft 449 kts 143°
2026-04-25 15:42 38.41594 122.11622 25955 ft 452 kts 143°
2026-04-25 15:43 38.39100 122.14081 26291 ft 454 kts 143°
2026-04-25 15:43 38.36588 122.16557 26638 ft 456 kts 143°
2026-04-25 15:43 38.34076 122.19030 26961 ft 458 kts 143°
2026-04-25 15:43 38.31545 122.21518 27277 ft 461 kts 143°
2026-04-25 15:44 38.29215 122.24322 27513 ft 465 kts 127°
2026-04-25 15:44 38.27582 122.27875 27813 ft 467 kts 110°
2026-04-25 15:44 38.26762 122.31873 28141 ft 466 kts 98°
2026-04-25 15:44 38.26272 122.35890 28466 ft 467 kts 97°
2026-04-25 15:45 38.25755 122.39988 28734 ft 470 kts 98°
2026-04-25 15:45 38.24944 122.44079 28949 ft 475 kts 112°
2026-04-25 15:45 38.23307 122.47652 29207 ft 477 kts 129°
2026-04-25 15:45 38.22567 122.48737 29302 ft 477 kts 134°
2026-04-25 15:46 38.18648 122.53680 29756 ft 481 kts 136°
2026-04-25 15:46 38.16238 122.56663 29979 ft 483 kts 135°
2026-04-25 15:46 38.13840 122.59688 30197 ft 485 kts 135°
2026-04-25 15:46 38.11470 122.62730 30474 ft 485 kts 134°
2026-04-25 15:47 38.09108 122.65781 30786 ft 484 kts 134°
2026-04-25 15:47 38.06754 122.68838 31096 ft 484 kts 134°
2026-04-25 15:47 38.04398 122.71903 31352 ft 485 kts 134°
2026-04-25 15:47 38.02043 122.74966 31621 ft 485 kts 134°
2026-04-25 15:48 37.99688 122.78026 31916 ft 484 kts 134°
2026-04-25 15:48 37.97335 122.81079 32209 ft 484 kts 134°
2026-04-25 15:48 37.94981 122.84129 32482 ft 484 kts 134°
2026-04-25 15:48 37.92624 122.87178 32760 ft 484 kts 134°
2026-04-25 15:49 37.90270 122.90221 33038 ft 484 kts 133°
2026-04-25 15:49 37.87918 122.93259 33322 ft 483 kts 133°
2026-04-25 15:49 37.85566 122.96293 33596 ft 483 kts 133°
2026-04-25 15:49 37.83209 122.99329 33869 ft 483 kts 133°
2026-04-25 15:50 37.80853 123.02363 34124 ft 483 kts 133°
2026-04-25 15:50 37.78533 123.05347 34386 ft 481 kts 134°
2026-04-25 15:50 37.76159 123.08397 34644 ft 480 kts 134°
2026-04-25 15:50 37.73816 123.11406 34864 ft 480 kts 134°
2026-04-25 15:51 37.71507 123.14368 35090 ft 479 kts 134°
2026-04-25 15:51 37.70721 123.15375 35176 ft 479 kts 134°
2026-04-25 15:51 37.66838 123.20348 35580 ft 477 kts 134°
2026-04-25 15:51 37.64507 123.23330 35782 ft 477 kts 134°
2026-04-25 15:52 37.62177 123.26309 35995 ft 476 kts 134°
2026-04-25 15:52 37.59855 123.29275 36220 ft 475 kts 135°
2026-04-25 15:52 37.57530 123.32241 36441 ft 474 kts 134°
2026-04-25 15:52 37.55336 123.35341 36614 ft 474 kts 128°
2026-04-25 15:53 37.53326 123.38642 36803 ft 474 kts 126°
2026-04-25 15:53 37.51372 123.41993 36974 ft 474 kts 126°
2026-04-25 15:53 37.47479 123.48714 37040 ft 475 kts 126°
2026-04-25 15:54 37.43541 123.55385 37052 ft 474 kts 127°
2026-04-25 15:54 37.39589 123.61995 37054 ft 473 kts 127°
2026-04-25 15:55 37.35635 123.68584 37053 ft 472 kts 127°
2026-04-25 15:55 37.31683 123.75161 37059 ft 471 kts 127°
2026-04-25 15:56 37.27728 123.81735 37064 ft 471 kts 127°
2026-04-25 15:56 37.23798 123.88256 37064 ft 471 kts 127°
2026-04-25 15:57 37.19841 123.94812 37066 ft 471 kts 126°
2026-04-25 15:57 37.18178 123.98343 37055 ft 471 kts 112°
2026-04-25 15:57 37.17167 124.02226 37072 ft 469 kts 101°
2026-04-25 15:58 37.16789 124.06281 37064 ft 467 kts 87°
2026-04-25 15:58 37.16943 124.10341 37087 ft 466 kts 84°
2026-04-25 15:58 37.17379 124.18475 37069 ft 468 kts 85°
2026-04-25 15:59 37.17678 124.26638 37064 ft 469 kts 87°
2026-04-25 15:59 37.17853 124.34826 37070 ft 470 kts 87°
2026-04-25 16:00 37.17971 124.40317 37068 ft 471 kts 87°
2026-04-25 16:00 37.18221 124.51249 37068 ft 472 kts 87°
2026-04-25 16:01 37.18405 124.59484 37071 ft 472 kts 87°
2026-04-25 16:01 37.18582 124.67723 37074 ft 472 kts 88°
2026-04-25 16:02 37.18754 124.75959 37073 ft 472 kts 88°
2026-04-25 16:02 37.18921 124.84196 37075 ft 472 kts 88°
2026-04-25 16:03 37.19060 124.91042 37072 ft 472 kts 88°
2026-04-25 16:03 37.19252 125.00584 37078 ft 471 kts 88°
2026-04-25 16:04 37.19386 125.07471 37077 ft 471 kts 88°
2026-04-25 16:04 37.19539 125.15632 37083 ft 471 kts 88°
2026-04-25 16:05 37.19687 125.23852 37084 ft 472 kts 88°
2026-04-25 16:06 37.19899 125.36242 37084 ft 474 kts 88°
2026-04-25 16:06 37.20035 125.44524 37081 ft 475 kts 89°
2026-04-25 16:07 37.20161 125.52820 37084 ft 476 kts 89°
2026-04-25 16:07 37.20270 125.61127 37080 ft 476 kts 89°
2026-04-25 16:08 37.20374 125.69440 37086 ft 477 kts 89°
2026-04-25 16:08 37.20474 125.77753 37088 ft 477 kts 89°
2026-04-25 16:09 37.20569 125.86071 37090 ft 477 kts 89°
2026-04-25 16:09 37.20660 125.94399 37083 ft 477 kts 89°
2026-04-25 16:10 37.20744 126.02711 37086 ft 477 kts 90°
2026-04-25 16:10 37.20823 126.10996 37083 ft 477 kts 90°
2026-04-25 16:11 37.20895 126.19148 37082 ft 478 kts 90°
2026-04-25 16:11 37.20963 126.27484 37077 ft 478 kts 90°
2026-04-25 16:12 37.21025 126.35819 37076 ft 479 kts 90°
2026-04-25 16:12 37.21083 126.44181 37073 ft 479 kts 90°
2026-04-25 16:13 37.21136 126.52543 37074 ft 480 kts 90°
2026-04-25 16:13 37.21187 126.60926 37067 ft 481 kts 90°
2026-04-25 16:14 37.21234 126.69267 37070 ft 481 kts 90°
2026-04-25 16:14 37.21275 126.77666 37070 ft 482 kts 91°
2026-04-25 16:15 37.21312 126.86094 37078 ft 483 kts 90°
2026-04-25 16:15 37.21467 126.94523 37064 ft 485 kts 82°
2026-04-25 16:15 37.22262 126.98618 37097 ft 484 kts 69°
2026-04-25 16:16 37.23704 127.02428 37071 ft 483 kts 56°
2026-04-25 16:16 37.27986 127.08861 37102 ft 481 kts 45°
2026-04-25 16:17 37.32530 127.15039 37097 ft 482 kts 46°
2026-04-25 16:17 37.37016 127.21308 37102 ft 483 kts 46°
2026-04-25 16:18 37.41477 127.27639 37101 ft 483 kts 46°
2026-04-25 16:18 37.45880 127.33977 37085 ft 485 kts 51°
2026-04-25 16:19 37.49134 127.41406 37087 ft 487 kts 69°
2026-04-25 16:19 37.50731 127.49690 37084 ft 487 kts 80°
2026-04-25 16:20 37.52629 127.62279 37068 ft 488 kts 79°
2026-04-25 16:21 37.54647 127.74849 37071 ft 488 kts 79°
2026-04-25 16:21 37.55972 127.83242 37084 ft 488 kts 79°
2026-04-25 16:22 37.57291 127.91638 37067 ft 488 kts 79°
2026-04-25 16:22 37.58597 127.99982 37081 ft 488 kts 79°
2026-04-25 16:23 37.59907 128.08386 37080 ft 488 kts 79°
2026-04-25 16:23 37.61211 128.16787 37075 ft 488 kts 79°
2026-04-25 16:24 37.62516 128.25207 37070 ft 489 kts 79°
2026-04-25 16:24 37.63814 128.33615 37060 ft 488 kts 79°
2026-04-25 16:25 37.65106 128.42030 37086 ft 488 kts 79°
2026-04-25 16:25 37.66393 128.50457 37072 ft 489 kts 79°
2026-04-25 16:26 37.67675 128.58890 37070 ft 489 kts 79°
2026-04-25 16:26 37.68922 128.67333 37083 ft 490 kts 81°
2026-04-25 16:26 37.69325 128.71550 37051 ft 489 kts 92°
2026-04-25 16:27 37.68990 128.75781 37073 ft 483 kts 105°
2026-04-25 16:27 37.68011 128.79804 37065 ft 477 kts 117°
2026-04-25 16:27 37.66436 128.83452 37068 ft 472 kts 126°
2026-04-25 16:28 37.62952 128.90489 37053 ft 473 kts 126°
2026-04-25 16:28 37.59484 128.97543 37051 ft 474 kts 126°
2026-04-25 16:29 37.56060 129.04633 37050 ft 474 kts 126°
2026-04-25 16:29 37.52639 129.11744 37049 ft 474 kts 126°
2026-04-25 16:30 37.49212 129.18847 37053 ft 474 kts 126°
2026-04-25 16:30 37.45780 129.25938 37051 ft 474 kts 126°
2026-04-25 16:31 37.42341 129.33032 37053 ft 475 kts 126°
2026-04-25 16:31 37.38909 129.40112 37050 ft 475 kts 126°
2026-04-25 16:32 37.35470 129.47200 37050 ft 475 kts 126°
2026-04-25 16:32 37.32024 129.54284 37050 ft 475 kts 126°
2026-04-25 16:33 37.28577 129.61355 37054 ft 475 kts 127°
2026-04-25 16:33 37.25145 129.68382 37053 ft 475 kts 127°
2026-04-25 16:34 37.21685 129.75450 37058 ft 475 kts 127°
2026-04-25 16:34 37.18214 129.82529 37060 ft 476 kts 127°
2026-04-25 16:35 37.14741 129.89582 37063 ft 476 kts 127°
2026-04-25 16:35 37.11246 129.96641 37063 ft 476 kts 127°
2026-04-25 16:36 37.07750 130.03690 37066 ft 477 kts 127°
2026-04-25 16:36 37.04246 130.10747 37075 ft 477 kts 127°
2026-04-25 16:37 37.00738 130.17797 37073 ft 477 kts 128°
2026-04-25 16:37 36.97226 130.24840 37072 ft 478 kts 128°
2026-04-25 16:38 36.93730 130.31836 37074 ft 478 kts 128°
2026-04-25 16:38 36.90198 130.38890 37077 ft 478 kts 128°
2026-04-25 16:39 36.86662 130.45939 37078 ft 479 kts 128°
2026-04-25 16:39 36.83120 130.52984 37077 ft 479 kts 128°
2026-04-25 16:40 36.79573 130.60026 37084 ft 480 kts 128°
2026-04-25 16:40 36.76014 130.67078 37080 ft 480 kts 129°
2026-04-25 16:41 36.72446 130.74124 37084 ft 481 kts 129°
2026-04-25 16:41 36.67080 130.84692 37079 ft 481 kts 129°
2026-04-25 16:42 36.63490 130.91746 37093 ft 482 kts 129°
2026-04-25 16:42 36.59902 130.98786 37086 ft 482 kts 129°
2026-04-25 16:43 36.56296 131.05844 37090 ft 483 kts 129°
2026-04-25 16:43 36.52694 131.12882 37086 ft 483 kts 130°
2026-04-25 16:44 36.49080 131.19928 37083 ft 483 kts 130°
2026-04-25 16:44 36.45478 131.26937 37087 ft 484 kts 130°
2026-04-25 16:45 36.41830 131.34020 37088 ft 484 kts 130°
2026-04-25 16:45 36.38195 131.41065 37086 ft 485 kts 130°
2026-04-25 16:46 36.34289 131.47810 37095 ft 478 kts 137°
2026-04-25 16:46 36.31527 131.52058 37091 ft 478 kts 138°
2026-04-25 16:47 36.25938 131.60566 37090 ft 479 kts 138°
2026-04-25 16:47 36.21763 131.67013 37088 ft 480 kts 137°
2026-04-25 16:48 36.17599 131.73482 37086 ft 480 kts 138°
2026-04-25 16:48 36.13433 131.79949 37083 ft 480 kts 138°
2026-04-25 16:49 36.09264 131.86403 37089 ft 480 kts 138°
2026-04-25 16:49 36.05089 131.92851 37087 ft 480 kts 139°
2026-04-25 16:50 36.00905 131.99300 37086 ft 481 kts 139°
2026-04-25 16:50 35.96714 132.05747 37090 ft 481 kts 139°
2026-04-25 16:51 35.94606 132.08983 36699 ft 488 kts 139°
2026-04-25 16:51 35.92478 132.12243 36173 ft 487 kts 139°
2026-04-25 16:51 35.90364 132.15489 35573 ft 486 kts 139°
2026-04-25 16:51 35.89643 132.16594 35345 ft 486 kts 138°
2026-04-25 16:52 35.86123 132.21989 34279 ft 487 kts 138°
2026-04-25 16:52 35.83991 132.25248 33535 ft 488 kts 137°
2026-04-25 16:52 35.81876 132.28482 33063 ft 482 kts 137°
2026-04-25 16:52 35.79783 132.31684 32573 ft 477 kts 136°
2026-04-25 16:53 35.76355 132.36915 31817 ft 468 kts 136°
2026-04-25 16:53 35.74322 132.40010 31373 ft 463 kts 135°
2026-04-25 16:53 35.72299 132.43086 30928 ft 459 kts 135°
2026-04-25 16:54 35.70301 132.46120 30489 ft 455 kts 134°
2026-04-25 16:54 35.68322 132.49124 30041 ft 451 kts 134°
2026-04-25 16:54 35.66350 132.52117 29543 ft 446 kts 134°
2026-04-25 16:54 35.64408 132.55062 29079 ft 441 kts 134°
2026-04-25 16:55 35.62482 132.57980 28618 ft 436 kts 134°
2026-04-25 16:55 35.60576 132.60858 28178 ft 432 kts 134°
2026-04-25 16:55 35.58687 132.63705 27705 ft 429 kts 134°
2026-04-25 16:55 35.56811 132.66526 27204 ft 426 kts 134°
2026-04-25 16:56 35.54939 132.69341 26716 ft 424 kts 134°
2026-04-25 16:56 35.53079 132.72136 26243 ft 422 kts 134°
2026-04-25 16:56 35.51227 132.74918 25793 ft 419 kts 134°
2026-04-25 16:56 35.49390 132.77676 25350 ft 416 kts 133°
2026-04-25 16:57 35.47562 132.80420 24913 ft 414 kts 133°
2026-04-25 16:57 35.46356 132.82228 24627 ft 413 kts 133°
2026-04-25 16:57 35.43889 132.85805 24058 ft 406 kts 141°
2026-04-25 16:57 35.41602 132.87709 23596 ft 394 kts 161°
2026-04-25 16:58 35.39021 132.88656 23148 ft 382 kts 176°
2026-04-25 16:58 35.36409 132.88725 22727 ft 371 kts 188°
2026-04-25 16:58 35.33850 132.88436 22291 ft 367 kts 190°
2026-04-25 16:58 35.31316 132.88097 21833 ft 365 kts 190°
2026-04-25 16:59 35.28797 132.87765 21405 ft 363 kts 190°
2026-04-25 16:59 35.26286 132.87452 21012 ft 360 kts 189°
2026-04-25 16:59 35.23799 132.87159 20617 ft 358 kts 189°
2026-04-25 16:59 35.21331 132.86877 20211 ft 355 kts 189°
2026-04-25 17:00 35.18880 132.86600 19820 ft 353 kts 189°
2026-04-25 17:00 35.16445 132.86323 19434 ft 350 kts 189°
2026-04-25 17:00 35.14023 132.86044 19055 ft 348 kts 189°
2026-04-25 17:00 35.11648 132.85769 18685 ft 346 kts 189°
2026-04-25 17:01 35.09224 132.85488 18290 ft 344 kts 188°
2026-04-25 17:01 35.06851 132.85213 17892 ft 342 kts 188°
2026-04-25 17:01 35.04525 132.84944 17490 ft 340 kts 188°
2026-04-25 17:01 35.02147 132.84669 17040 ft 338 kts 188°
2026-04-25 17:02 34.99802 132.84398 16603 ft 337 kts 188°
2026-04-25 17:02 34.97505 132.84133 16197 ft 336 kts 188°
2026-04-25 17:02 34.95187 132.83866 15792 ft 334 kts 187°
2026-04-25 17:02 34.93626 132.83690 15494 ft 331 kts 186°
2026-04-25 17:03 34.90625 132.84277 14649 ft 336 kts 157°
2026-04-25 17:03 34.88703 132.85896 14160 ft 335 kts 136°
2026-04-25 17:03 34.87359 132.88189 13704 ft 331 kts 118°
2026-04-25 17:03 34.86353 132.90667 13302 ft 324 kts 117°
2026-04-25 17:04 34.85400 132.93128 12913 ft 318 kts 116°
2026-04-25 17:04 34.84472 132.95539 12544 ft 312 kts 116°
2026-04-25 17:04 34.83550 132.97921 12188 ft 309 kts 116°
2026-04-25 17:04 34.82628 133.00281 11847 ft 309 kts 117°
2026-04-25 17:05 34.81683 133.02685 11511 ft 321 kts 117°
2026-04-25 17:05 34.79736 133.07607 10766 ft 322 kts 117°
2026-04-25 17:05 34.78771 133.10042 10596 ft 315 kts 117°
2026-04-25 17:06 34.77831 133.12411 10444 ft 307 kts 117°
2026-04-25 17:06 34.76910 133.14727 10306 ft 300 kts 117°
2026-04-25 17:06 34.76010 133.16991 10178 ft 293 kts 117°
2026-04-25 17:06 34.75140 133.19175 9929 ft 290 kts 117°
2026-04-25 17:07 34.74264 133.21373 9631 ft 286 kts 117°
2026-04-25 17:07 34.73409 133.23518 9341 ft 279 kts 117°
2026-04-25 17:07 34.72575 133.25607 9078 ft 271 kts 117°
2026-04-25 17:07 34.71762 133.27644 8807 ft 264 kts 117°
2026-04-25 17:08 34.70967 133.29628 8539 ft 258 kts 119°
2026-04-25 17:08 34.69861 133.31273 8272 ft 248 kts 148°
2026-04-25 17:08 34.68298 133.32008 8060 ft 242 kts 175°
2026-04-25 17:08 34.66616 133.31835 7852 ft 249 kts 197°
2026-04-25 17:09 34.65028 133.30893 7622 ft 258 kts 211°
2026-04-25 17:09 34.63512 133.29683 7358 ft 262 kts 213°
2026-04-25 17:09 34.61996 133.28447 7091 ft 262 kts 213°
2026-04-25 17:09 34.60483 133.27230 6826 ft 259 kts 212°
2026-04-25 17:10 34.58992 133.26036 6572 ft 255 kts 212°
2026-04-25 17:10 34.57520 133.24868 6315 ft 251 kts 212°
2026-04-25 17:10 34.56059 133.23714 6058 ft 251 kts 212°
2026-04-25 17:10 34.54592 133.22558 5819 ft 251 kts 212°
2026-04-25 17:11 34.53130 133.21408 5583 ft 251 kts 212°
2026-04-25 17:11 34.51666 133.20256 5331 ft 251 kts 212°
2026-04-25 17:11 34.50201 133.19104 5083 ft 249 kts 212°
2026-04-25 17:11 34.48764 133.17974 4841 ft 243 kts 212°
2026-04-25 17:12 34.47373 133.16880 4693 ft 231 kts 212°
2026-04-25 17:12 34.46081 133.15865 4580 ft 213 kts 211°
2026-04-25 17:12 34.44885 133.14922 4468 ft 197 kts 213°
2026-04-25 17:12 34.44065 133.13702 4309 ft 185 kts 251°
2026-04-25 17:13 34.43857 133.12243 4163 ft 170 kts 260°
2026-04-25 17:13 34.43813 133.11786 4102 ft 169 kts 261°
2026-04-25 17:13 34.43622 133.09368 3777 ft 178 kts 266°
2026-04-25 17:13 34.43609 133.07841 3509 ft 179 kts 268°
2026-04-25 17:14 34.43610 133.06375 3271 ft 174 kts 268°
2026-04-25 17:14 34.43609 133.04958 3070 ft 160 kts 267°
2026-04-25 17:14 34.43608 133.03681 2860 ft 145 kts 267°
2026-04-25 17:14 34.43607 133.02474 2664 ft 140 kts 268°
2026-04-25 17:15 34.43607 133.01283 2483 ft 141 kts 268°
2026-04-25 17:15 34.43608 133.00077 2288 ft 145 kts 268°
2026-04-25 17:15 34.43607 132.98852 2076 ft 149 kts 269°
2026-04-25 17:15 34.43608 132.97571 1861 ft 151 kts 269°
2026-04-25 17:16 34.43601 132.96310 1637 ft 152 kts 270°
2026-04-25 17:16 34.43599 132.95022 1373 ft 153 kts 271°
2026-04-25 17:16 34.43598 132.93758 1117 ft 144 kts 271°
2026-04-25 17:16 34.43601 132.92673 1077 ft 103 kts 271°
2026-04-25 17:17 34.43600 132.92111 1077 ft 50 kts 269°
2026-04-25 17:17 34.43598 132.91734 1077 ft 23 kts 271°
2026-04-25 17:17 34.43618 132.91569 1078 ft 14 kts 289°
2026-04-25 17:17 34.43658 132.91530 1078 ft 8 kts 354°
2026-04-25 17:18 34.43728 132.91530 1077 ft 12 kts
2026-04-25 17:18 34.43795 132.91575 1077 ft 10 kts 10°
2026-04-25 17:18 34.43859 132.91556 1078 ft 9 kts 351°
2026-04-25 17:18 34.43916 132.91554 1078 ft 0 kts 359°